Lapse_Rate
8.5 8.2 7.9 7.4 6.7 6.7 7.1 6.8 6.7 6.6 6.5 6.5 6.3 6.2 6.4 6.0 5.7 6.0 6.0 5.9 5.9 5.9 5.7 5.7 5.6 5.8 5.8 5.7 5.9 6.0 6.2 6.2 6.3
8.5 8.4 8.0 7.6 7.1 6.7 7.0 6.9 6.7 6.8 6.7 6.4 6.3 6.4 6.4 6.1 6.0 6.1 6.1 6.2 6.1 6.0 5.8 5.8 5.7 5.7 5.8 5.7 5.9 6.3 6.3 6.4 6.4
8.5 8.7 8.5 8.1 7.5 6.9 7.0 7.1 6.8 6.6 6.5 6.5 6.4 6.2 6.2 6.0 6.2 6.3 6.3 6.0 6.1 6.1 5.8 5.7 5.7 5.8 5.8 6.0 6.0 6.3 6.4 6.5 6.7
8.5 8.7 8.8 8.7 8.5 8.0 7.5 7.1 6.9 6.8 6.4 6.3 6.1 5.9 5.8 5.8 6.1 6.2 6.2 6.2 6.2 6.1 5.9 5.8 5.8 5.8 6.0 6.1 6.2 6.5 6.6 6.6 6.7
8.5 8.7 8.9 8.9 8.7 8.5 8.0 7.7 7.3 7.0 6.9 6.3 6.2 6.2 6.0 5.9 5.9 6.0 6.0 6.1 6.2 6.1 6.0 5.9 5.8 5.9 6.2 6.3 6.5 6.6 6.8 6.8 6.9
8.3 8.6 8.8 9.0 9.0 9.0 8.5 8.0 7.8 7.5 7.1 6.7 6.5 6.4 6.2 6.0 5.8 5.9 6.0 6.1 6.1 6.0 6.0 6.0 6.0 6.1 6.3 6.4 6.6 6.8 7.0 7.1 7.1
8.1 8.3 8.7 8.9 9.0 8.9 9.1 8.6 8.1 8.0 7.5 7.1 6.8 6.5 6.3 6.3 6.1 6.2 6.2 6.1 6.0 5.9 6.0 6.1 6.3 6.3 6.4 6.5 6.5 6.8 7.1 7.3 7.2
8.2 8.3 8.7 8.8 9.0 9.0 8.8 9.1 8.7 8.1 8.0 7.5 7.0 6.8 6.5 6.3 6.5 6.5 6.4 6.1 6.1 6.0 5.9 6.2 6.3 6.4 6.4 6.4 6.5 6.7 7.0 7.0 6.9
7.6 8.0 8.6 8.8 9.0 9.0 8.9 9.1 9.0 8.6 8.1 7.7 7.3 6.8 6.6 6.5 6.2 6.4 6.5 6.4 6.4 6.2 6.1 6.2 6.4 6.6 6.5 6.4 6.6 6.6 6.6 6.7 6.7
7.7 8.0 8.3 8.5 8.8 9.0 9.2 9.3 9.2 9.1 8.6 8.0 7.4 7.0 6.8 6.4 6.3 6.5 6.8 6.8 6.7 6.6 6.5 6.4 6.6 6.5 6.5 6.7 6.7 6.7 6.8 6.7 6.8
7.7 8.0 8.2 8.4 8.7 9.0 9.4 9.3 9.4 9.6 9.2 8.6 7.8 7.5 7.1 6.6 6.4 6.6 7.0 7.2 7.0 6.9 6.7 6.7 6.7 6.7 6.7 6.7 6.8 6.9 6.9 6.9 7.1
7.5 7.7 8.1 8.3 8.7 9.0 9.2 9.4 9.5 9.5 9.3 8.9 8.2 7.7 7.4 7.0 6.7 7.1 7.3 7.3 7.2 7.2 7.1 7.0 7.0 7.0 6.9 7.1 7.2 7.2 7.2 7.2 7.4
7.6 7.7 8.2 8.4 8.7 8.9 9.3 9.4 9.6 9.4 9.5 9.2 8.5 8.0 7.6 7.4 7.2 7.2 7.5 7.5 7.4 7.5 7.4 7.3 7.2 7.2 7.3 7.5 7.5 7.5 7.5 7.5 7.6
8.2 7.8 8.5 9.0 9.0 9.0 9.2 9.4 9.5 9.5 9.4 9.3 9.1 8.3 7.7 7.6 7.5 7.6 7.5 7.5 7.6 7.7 7.6 7.6 7.5 7.5 7.5 7.7 8.0 8.0 7.9 8.0 8.1
8.0 8.0 8.4 8.2 8.0 8.9 9.2 9.5 9.7 9.4 9.4 9.3 9.2 8.7 8.1 7.7 7.5 7.5 7.6 7.8 7.8 7.9 7.9 8.0 8.1 8.2 8.3 8.6 8.6 8.4 8.3 8.2 8.3
7.7 7.8 8.1 8.6 8.6 8.7 9.0 9.2 9.3 9.3 9.3 9.1 9.2 8.8 8.4 8.0 7.9 7.8 7.9 7.9 7.9 8.0 8.2 8.3 8.4 8.4 8.5 8.4 8.2 8.2 8.4 8.5 8.6
6.8 7.1 7.6 8.4 9.0 9.2 9.2 9.1 9.1 9.0 9.1 8.5 9.0 8.8 8.7 8.4 8.3 8.2 8.2 8.2 8.2 8.2 8.6 8.8 8.7 8.7 8.7 8.5 8.5 8.6 8.6 8.5 8.4
7.0 7.1 7.3 7.8 8.2 8.5 8.9 8.8 8.9 9.0 9.0 9.1 9.1 9.0 9.1 8.6 8.6 8.3 8.5 8.6 8.7 8.7 8.7 8.8 8.9 8.9 8.6 8.6 8.6 8.4 8.4 8.4 8.4
7.1 6.9 7.1 7.4 8.0 8.0 7.9 8.1 8.3 8.5 8.7 9.0 8.9 9.0 9.0 8.9 8.8 8.7 8.6 8.6 8.8 8.8 9.0 9.1 9.2 8.4 8.4 8.4 8.6 8.5 8.2 8.4 8.3
6.8 7.1 7.0 6.8 6.9 7.2 7.4 7.5 7.7 7.9 8.0 8.3 8.5 8.4 8.4 8.3 8.6 6.8 8.1 8.8 8.5 8.6 8.5 8.5 8.6 8.8 8.7 8.7 8.5 8.2 8.1 8.0 8.0
Wind_Speed
20 23 23 24 25 23 22 23 22 22 21 20 19 19 18 16 16 12 12 13 11 10 10 10 10 11 12 12 11 9 9 5 6
20 23 25 27 26 24 23 22 23 22 21 20 20 21 17 17 15 15 13 14 13 10 9 9 10 12 10 12 12 12 9 7 7
18 21 23 23 24 25 23 24 22 22 22 22 21 20 17 15 16 16 14 12 13 13 11 11 11 12 11 10 11 12 10 8 8
20 20 22 23 24 25 25 24 23 23 22 21 20 19 18 17 17 17 15 14 14 13 13 13 13 12 11 10 11 11 11 11 10
21 21 22 23 24 24 24 24 23 25 23 23 21 20 18 19 17 17 17 15 16 14 14 14 13 13 12 11 11 11 11 11 11
14 19 20 20 19 21 22 23 23 23 23 25 24 20 21 19 19 18 17 17 16 15 15 14 15 14 14 13 12 11 11 12 12
10 13 16 16 17 18 21 21 22 22 22 23 23 22 21 19 19 19 18 17 16 17 15 15 15 15 15 14 14 13 12 12 12
4 8 12 17 20 19 20 20 20 19 19 20 21 20 21 21 19 18 17 16 16 16 16 15 15 15 15 15 14 12 15 14 14
11 11 11 13 19 19 20 22 22 22 22 21 20 20 20 18 18 17 18 17 16 16 16 16 15 16 15 16 13 14 15 15 14
11 13 13 14 16 19 20 22 22 23 23 21 21 20 19 18 18 18 18 17 17 17 17 15 15 16 16 16 16 14 16 17 15
13 15 16 17 16 18 20 23 24 19 20 21 20 19 19 18 18 18 17 16 17 16 15 15 15 16 16 15 14 12 15 15 17
14 16 17 19 18 20 17 20 20 20 20 20 19 19 19 19 18 18 17 17 17 15 14 14 15 15 16 16 16 16 17 14 16
14 13 12 14 17 18 18 19 20 20 21 21 22 21 20 18 18 18 18 17 17 15 14 15 13 15 16 16 17 14 17 16 13
12 12 13 4 13 14 16 18 19 19 19 22 19 17 17 17 17 17 17 15 14 14 15 13 14 15 14 16 16 16 17 18 15
15 15 16 12 7 11 15 18 18 18 18 14 15 15 16 16 16 15 14 15 14 15 14 14 14 14 12 12 14 16 15 18 21
15 17 15 15 13 14 11 8 8 14 9 14 17 16 16 16 16 15 13 15 14 13 14 12 13 12 11 11 10 11 17 16 19
16 17 15 16 18 19 17 14 11 8 5 10 14 15 15 14 15 15 14 13 12 12 12 12 12 11 11 10 10 9 9 9 9
13 14 16 15 15 16 17 15 15 12 9 2 9 12 13 13 13 15 14 11 8 11 10 10 12 10 10 10 9 9 9 8 8
14 15 16 16 18 15 15 14 14 13 11 8 4 5 6 6 8 10 11 10 7 13 9 5 3 4 8 3 5 7 8 8 7
15 16 18 17 15 14 14 13 14 14 13 10 9 6 4 5 4 6 6 9 9 6 7 13 15 9 8 6 10 10 12 12 12
Wind_Direction
203 204 204 204 200 198 197 195 195 194 193 197 196 200 201 204 207 209 213 210 214 216 224 222 206 201 206 205 206 212 210 216 222
199 201 203 203 200 199 196 196 194 195 194 198 199 201 203 203 204 210 213 212 209 215 216 221 214 206 204 209 209 214 213 224 222
207 204 205 205 202 200 198 197 195 193 196 196 198 203 202 207 203 205 210 209 211 208 208 212 211 209 209 208 211 215 218 226 227
214 206 204 204 204 201 199 196 194 196 196 196 196 199 202 203 207 205 205 209 212 208 201 204 209 208 208 212 214 215 218 230 237
220 215 208 207 205 200 200 198 194 196 197 197 197 197 197 202 201 205 203 207 208 206 203 205 212 210 208 211 216 217 220 228 235
214 213 217 211 200 198 198 197 197 196 195 200 199 194 196 200 202 202 206 203 204 202 204 207 211 212 213 210 216 216 220 229 234
231 217 217 209 205 202 200 197 198 197 195 197 196 195 197 198 200 200 204 201 200 202 202 206 211 211 215 214 217 219 222 226 232
256 236 222 205 200 197 197 195 195 195 193 193 193 192 194 197 198 200 201 199 199 202 202 208 209 213 216 217 221 223 222 223 227
280 275 258 229 215 202 196 195 190 190 190 190 186 190 195 193 192 193 198 198 198 198 207 209 210 212 217 218 222 217 206 217 224
286 281 276 262 236 211 200 197 189 189 188 181 186 190 190 190 190 193 197 198 197 200 205 208 211 214 217 221 224 213 206 206 232
302 294 286 270 255 230 208 200 196 185 182 181 183 187 188 187 189 193 195 197 199 201 204 207 209 215 217 221 228 208 210 205 230
303 288 278 270 256 233 208 194 182 177 179 178 179 187 190 188 188 190 192 196 199 200 204 209 214 217 218 219 228 205 206 199 230
317 308 287 261 238 207 185 182 174 172 178 178 186 188 189 186 188 190 192 194 196 197 200 208 212 220 223 223 229 210 206 200 228
348 346 344 297 189 171 170 166 166 172 179 189 189 182 183 185 189 191 192 193 196 196 202 209 212 219 223 225 223 230 203 196 220
4 12 18 38 105 146 157 160 164 174 184 176 175 175 180 185 188 191 193 192 192 197 201 207 212 219 225 225 229 220 209 200 208
10 15 33 46 73 80 87 140 162 168 165 166 172 178 182 184 186 191 189 193 194 197 200 209 212 214 222 223 222 227 210 202 204
21 18 16 38 56 61 62 66 82 89 162 177 180 180 181 182 184 186 191 194 199 204 202 206 211 211 218 222 221 221 220 211 215
21 20 18 27 37 50 52 52 50 45 44 146 187 197 191 188 188 185 187 193 208 207 209 214 205 213 213 210 221 222 212 205 205
17 20 17 21 27 33 40 41 40 29 20 29 75 162 188 206 200 189 183 171 142 52 19 3 33 223 217 166 44 92 132 135 157
14 18 20 18 18 19 23 34 32 15 10 6 43 35 95 65 50 228 177 182 171 149 55 61 46 37 98 94 137 130 125 111 93